Weather Search – Historical Data

Quick picks

Today Yesterday Last 7 days Last 30 days This month Last month Last year (same date) All of last year

Custom search

Database contains data from 2013-07-07 to 2026-08-31.

Monday August 31, 2026

94 measurements (5-min interval)

Max temperature
13,1 Β°C
00:00
Min temperature
11,3 Β°C
06:35
Avg temperature
12,2 Β°C
Total rainfall
0,5 mm
Max wind gust
2,2 m/s
NW Β· 00:45
Avg wind
0,1 m/s
Avg humidity
95 %
Avg pressure
1 004 hPa
Max UV index
0,5
07:40
Max solar radiation
149 W/mΒ²
07:45
Avg radiation (daytime)
58 W/mΒ²

Charts

Temperature and dew point
Wind and gusts
Wind rose Β· prevailing: NNW
Rainfall
Humidity
Air pressure
UV and solar radiation

Detailed data

TimeTemp Β°CDew Β°C Humid %Wind m/sGust m/s Dir Β°Rain mmPress. hPa UVSolar W/mΒ²
00:00 13,111,7 910,4 1,3315 0,001 003,6 0,00
00:05 13,111,5 900,0 0,9– 0,001 003,6 0,00
00:10 13,111,7 910,0 0,9– 0,001 003,6 0,00
00:15 13,111,7 910,0 0,4– 0,001 003,6 0,00
00:20 13,111,7 910,0 0,0– 0,001 003,6 0,00
00:25 13,111,7 910,0 0,0– 0,001 003,6 0,00
00:30 13,111,6 910,0 0,4– 0,001 003,7 0,00
00:35 13,111,6 910,0 0,9– 0,001 003,7 0,00
00:40 13,111,6 910,0 0,9– 0,001 003,7 0,00
00:45 13,011,6 910,4 2,2315 0,001 003,7 0,00
00:50 13,011,7 920,0 0,9– 0,001 003,7 0,00
00:55 12,911,6 920,4 1,8315 0,001 003,7 0,00
01:00 12,811,7 930,4 1,3315 0,001 003,8 0,00
01:05 12,811,7 930,0 0,9– 0,001 003,8 0,00
01:10 12,711,6 930,0 0,9– 0,001 003,8 0,00
01:15 12,711,6 930,0 0,9– 0,001 003,8 0,00
01:20 12,711,7 940,0 0,9– 0,001 003,8 0,00
01:25 12,611,7 940,0 1,3– 0,001 003,8 0,00
01:30 12,611,7 940,0 1,3– 0,001 003,8 0,00
01:35 12,611,7 940,4 0,9315 0,251 003,8 0,00
01:40 12,611,6 940,0 0,4– 0,001 003,8 0,00
01:45 12,511,6 940,4 1,3338 0,001 003,9 0,00
01:50 12,411,5 940,4 2,2338 0,001 003,9 0,00
01:55 12,411,5 940,4 1,3338 0,251 003,9 0,00
02:00 12,411,4 940,4 2,2338 0,001 003,9 0,00
02:05 12,411,4 940,4 1,8338 0,001 003,9 0,00
02:10 12,311,3 940,9 2,2338 0,001 003,9 0,00
02:15 12,211,3 940,4 1,8338 0,001 004,0 0,00
02:20 12,211,3 940,0 1,3– 0,001 004,0 0,00
02:25 12,211,3 940,0 0,9– 0,001 004,0 0,00
02:30 12,311,6 950,0 0,0– 0,001 004,0 0,00
02:35 12,411,6 950,0 0,0– 0,001 004,0 0,00
02:40 12,311,3 940,0 0,0– 0,001 004,0 0,00
02:45 12,211,4 950,0 0,0– 0,001 004,0 0,00
02:50 12,211,4 950,0 0,0– 0,001 004,0 0,00
02:55 12,211,4 950,0 0,0– 0,001 004,0 0,00
03:00 12,211,4 950,0 0,0– 0,001 004,0 0,00
03:05 12,211,4 950,0 0,0– 0,001 004,0 0,00
03:10 12,211,4 950,0 0,0– 0,001 004,0 0,00
03:15 12,211,4 950,0 0,0– 0,001 004,0 0,00
03:20 12,211,4 950,0 0,0– 0,001 004,0 0,00
03:25 12,211,4 950,0 0,0– 0,001 004,0 0,00
03:30 12,211,4 950,0 0,0– 0,001 004,0 0,00
03:35 12,311,5 950,0 0,0– 0,001 004,0 0,00
03:40 12,311,5 950,0 0,0– 0,001 004,0 0,00
03:45 12,211,4 950,0 0,0– 0,001 003,8 0,00
03:50 12,211,4 950,0 0,0– 0,001 003,8 0,00
03:55 12,211,5 960,0 0,0– 0,001 003,8 0,00
04:00 12,211,6 960,0 0,0– 0,001 003,7 0,00
04:05 12,211,6 960,0 0,0– 0,001 003,7 0,00
04:10 12,211,4 950,0 0,0– 0,001 003,7 0,00
04:15 12,111,5 960,0 0,0– 0,001 003,6 0,00
04:20 12,111,5 960,0 0,0– 0,001 003,6 0,00
04:25 12,111,4 960,0 0,0– 0,001 003,6 0,00
04:30 12,111,4 960,0 0,0– 0,001 003,6 0,00
04:35 12,111,5 960,0 0,0– 0,001 003,6 0,00
04:40 12,211,5 960,0 0,0– 0,001 003,6 0,00
04:45 12,211,5 960,0 0,0– 0,001 003,6 0,00
04:50 12,211,5 960,0 0,0– 0,001 003,6 0,00
04:55 12,211,5 960,0 0,0– 0,001 003,6 0,00
05:00 12,111,5 960,0 0,0– 0,001 003,5 0,00
05:05 12,011,4 960,0 0,0– 0,001 003,5 0,00
05:10 11,911,3 960,0 0,0– 0,001 003,5 0,00
05:15 11,911,3 960,0 0,9– 0,001 003,5 0,00
05:20 11,811,2 960,4 0,9338 0,001 003,5 0,00
05:25 11,811,2 960,0 0,4– 0,001 003,5 0,00
05:30 11,711,0 960,0 0,0– 0,001 003,5 0,00
05:35 11,611,0 960,0 0,0– 0,001 003,5 0,00
05:40 11,611,0 960,0 0,4– 0,001 003,5 0,00
05:45 11,611,0 960,0 0,4– 0,001 003,6 0,00
05:50 11,611,0 960,0 0,0– 0,001 003,6 0,00
05:55 11,611,0 960,0 0,0– 0,001 003,6 0,00
06:00 11,611,0 960,0 0,4– 0,001 003,6 0,00
06:05 11,611,0 960,0 0,9– 0,001 003,6 0,00
06:10 11,610,9 960,0 0,4– 0,001 003,6 0,00
06:15 11,410,8 960,0 0,0– 0,001 003,6 0,00
06:20 11,410,8 960,0 0,0– 0,001 003,6 0,00
06:25 11,310,7 960,0 0,0– 0,001 003,6 0,00
06:30 11,310,7 960,0 0,0– 0,001 003,6 0,00
06:35 11,310,7 960,0 0,0– 0,001 003,6 0,00
06:40 11,310,7 960,0 0,0– 0,001 003,6 0,02
06:45 11,310,7 960,0 0,0– 0,001 003,6 0,06
06:50 11,310,7 960,0 0,0– 0,001 003,6 0,09
06:55 11,310,7 960,0 0,0– 0,001 003,6 0,014
07:00 11,310,7 960,0 0,0– 0,001 003,7 0,019
07:05 11,310,7 960,0 0,0– 0,001 003,7 0,024
07:10 11,410,8 960,0 0,0– 0,001 003,7 0,034
07:15 11,510,9 960,0 0,0– 0,001 003,7 0,046
07:20 11,711,0 960,0 0,0– 0,001 003,7 0,078
07:25 11,811,2 960,0 0,0– 0,001 003,7 0,072
07:30 11,911,3 960,0 0,0– 0,001 003,6 0,073
07:35 12,011,4 960,0 0,0– 0,001 003,6 0,4143
07:40 12,111,4 960,0 0,0– 0,001 003,6 0,5144
07:45 12,111,4 960,0 0,0– 0,001 003,6 0,5149